Search flights

Malaga Airport, Malaga (LEMG)

Meteorología aeropuerto y NOTAMs

METAR for:LEMG (Málaga Arpt, AN, ES)
Text:LEMG 180330Z 29004KT 6000 FEW006 18/17 Q1012 NOSIG
Conditions at:0330 UTC 18 Jun 2024
Temperature: 18.0°C ( 64°F)
Dewpoint: 17.0°C ( 63°F) [RH = 94%]
Pressure (altimeter):29.88 inches Hg (1012.0 mb)
Winds:from the WNW (290 degrees) at 5 MPH (4 knots; 2.1 m/s)
Visibility:4 sm (6 km)
Ceiling:at least 12,000 feet AGL
Clouds:few clouds at 600 feet AGL
TAF for:LEMG (Málaga Arpt, AN, ES) issued at 0207 UTC 18 Jun 2024
Text:TAF AMD LEMG 180207Z 1802/1824 29004KT CAVOK TX31/1814Z TN18/1805Z
Forecast period:0200 to 0900 UTC 18 June 2024
Forecast type:FROM: standard forecast or significant change
Winds:from the WNW (290 degrees) at 5 MPH (4 knots; 2.1 m/s)
Visibility:6 or more sm (10+ km)
Clouds:missing
Temperature:MAX 31°C at 1400 UTC 18 Jun 2024
Temperature:MIN 18°C at 0500 UTC 18 Jun 2024
Text:PROB30
Forecast period:0200 to 0500 UTC 18 June 2024
Forecast type:TEMPORARY: The following changes expected for less than half the time period
Visibility:1.86 sm (2.99 km)
Weather:BR (mist)
Text:TEMPO 1802/1805 3000 BR
Forecast period:0900 to 1800 UTC 18 June 2024
Forecast type:BECOMING: Conditions expected to become as follows by 1100 UTC 18 June 2024
Winds:from the SSE (160 degrees) at 12 MPH (10 knots; 5.1 m/s)
Visibility:6 or more sm (10+ km)
Clouds:missing
Text:BECMG 1809/1811 16010KT
Forecast period:1800 UTC 18 June 2024 to 0000 UTC 19 June 2024
Forecast type:BECOMING: Conditions expected to become as follows by 2000 UTC 18 June 2024
Winds:from the NW (310 degrees) at 6 MPH (5 knots; 2.6 m/s)
Visibility:6 or more sm (10+ km)
Clouds:missing

Salidas y llegadas actuales

En este momento no hay salidas ni llegadas a este aeropuerto

Historial de salidas (últimos 12 meses)

Nº vuelo. Destino Aeronave Fecha
FNX406 LERS Airbus A32... 2024-06-14 16:58:37
FNX406 LEAS Airbus A32... 2024-06-14 08:47:44
FNX211 LPMA PMDG 737-8... 2024-06-14 19:04:57
FNX102 LPMA PMDG 737-8... 2024-06-14 19:13:34
FNX213 LEMD FNX_320_IA... 2024-06-13 21:24:51
FNX211 GCLP PMDG 737-8... 2024-06-12 19:14:14
FNX209 LEAM B737-800X... 2024-06-11 22:11:10
FNX213 LEMD FenixA320... 2024-06-10 21:41:18
FNX1118 LEBL PMDG 737-8... 2024-06-08 13:15:09
FNX215 LEBB PMDG 737-7... 2024-06-07 17:31:46
FNX213 LEPA FenixA320... 2024-06-07 16:03:05
FNX207 LEIB PMDG 737-8... 2024-06-07 18:19:10
FNX205 GCLP PMDG 737-8... 2024-06-05 15:26:33
FNX400 LEPA Airbus A32... 2024-05-24 17:30:03
FNX310 LEIB FenixA320... 2024-05-15 20:23:32
FNXIE12 GCLP PMDG 737-8... 2024-05-11 07:36:00
FNXPARTN18 LEPA Black Squa... 2024-04-26 09:23:39
FNX306 LEBL Fenix A320... 2024-04-20 01:32:48
FNX1118 LEMD Fenix A320... 2024-04-19 16:03:10
FNX215 LEXJ PMDG 737-7... 2024-04-08 23:16:20
FNXPARTN06 LEPA Beechcraft... 2024-04-02 16:26:17
FNXPARTN18 LEPA PMDG 737-8... 2024-03-31 14:23:29
FNX200 LEMH PMDG 737-8... 2024-03-28 07:12:36
FNXPARTN03 LEMD Boeing 747... 2024-03-27 16:16:46
FNX205 LPPT A320 2024-03-26 17:05:00
FNXPARTN06 LEPA PMDG 737-8... 2024-03-24 06:42:02
FNX1185 LEPA PMDG 737-8... 2024-03-23 10:22:00
FNX218 LEBL Fenix A320... 2024-03-21 06:50:10
FNX209 FIMP FLIGHT FAC... 2024-03-21 00:50:02
FNX209 LEBB 737NG Seri... 2024-03-19 15:59:21
FNX1006 LEMD Fenix A320... 2024-03-13 20:50:10
FNX1006 LEMD Fenix A320... 2024-03-08 13:38:52
FNX213 LEMD FenixA320... 2024-02-26 14:31:25
FNXPARTN03 LEMD PMDG 737-8... 2024-02-25 07:11:00
FNX403 LEMD PMDG 737-8... 2024-02-20 23:32:30
FNX205 GCTS PMDG 737-8... 2024-02-18 16:57:20
FNXANIV01 LEPA B738 Fenix... 2024-02-17 21:56:00
FNXANIV01 LEPA B738 Fenix... 2024-02-16 22:00:00
FNXANIV01 LEPA PMDG 737-8... 2024-02-16 21:14:28
FNXANIV01 LEPA PMDG 737-8... 2024-02-16 20:53:34
FNXANIV01 LEPA Airbus A32... 2024-02-16 20:51:58
FNXANIV01 LEPA PMDG 737-8... 2024-02-16 20:47:20
FNXANIV01 LEPA Airbus A32... 2024-02-16 20:27:52
FNXANIV01 LEPA PMDG 737-8... 2024-02-16 20:19:17
FNXANIV01 LEPA FenixA320... 2024-02-16 20:30:33
FNXANIV01 LEPA PMDG 737-8... 2024-02-16 21:15:47
FNX305 LEPA PMDG 737-8... 2024-02-15 00:00:47
FNX403 LEAS PMDG 737-8... 2024-02-12 09:12:19
FNXPARTN06 LEPA PMDG 737-8... 2024-02-10 10:12:41
FNX207 LEPA PMDG 737-8... 2024-02-08 11:55:08
FNXPARTN03 LEMD PMDG 737-8... 2024-02-02 19:06:26
FNX1185 LEPA PMDG 737-8... 2024-01-31 19:27:55
FNXPARTN18 LEPA PMDG 737-8... 2024-01-25 09:31:28
FNX207 LEGR Cessna Sky... 2024-01-24 08:10:30
FNXPARTN06 LEPA PMDG 737-8... 2024-01-20 18:15:28
FNXPARTN03 LEMD PMDG 737-8... 2024-01-17 18:49:20
FNX207 LEMH PMDG 737-8... 2024-01-12 08:05:46
FNX302 LEIB PMDG 737-8... 2024-01-08 09:05:41
FNX102 LEIB PMDG 737-8... 2023-12-11 11:56:07
FNX207 LPPT PMDG 737-8... 2023-11-30 12:02:46
FNX107 GCXO PMDG 737-8... 2023-10-12 20:43:42
FNX102 GCXO B737-800X... 2023-10-12 21:07:17
FNX107 LEZG PMDG 737-8... 2023-10-09 18:35:23
FNX102 LEAS IXEG 737 C... 2023-09-25 19:39:32

Historial de llegadas (últimos 12 meses)

Nº vuelo. Origen Aeronave Fecha
FNX406 LERS Fenix A320... 2024-06-17 12:45:02
FNX406 LEAL Airbus A32... 2024-06-13 20:35:38
FNX213 EDDH FenixA320... 2024-06-11 20:10:59
FNX211 LEMH PMDG 737-8... 2024-06-11 18:51:46
FNX102 LEMH PMDG 737-8... 2024-06-11 10:44:41
FNX209 LEMH B737-800X... 2024-06-10 23:31:10
FNX213 LEMD FenixA320... 2024-06-09 23:33:06
FNX311 LEIB FNX_320_IA... 2024-06-07 16:53:16
FNX213 LEMD FNX_320_CF... 2024-06-06 19:23:45
FNX205 LEPA PMDG 737-8... 2024-06-05 15:09:06
FNX211 GCXO PMDG 737-8... 2024-06-01 21:58:20
FNXIE11 LEGE Fenix A320... 2024-05-08 12:44:15
FNXPARTN17 GCLA Cessna Lon... 2024-04-24 12:42:20
FNX306 LEPA Fenix A320... 2024-04-19 04:45:25
FNX218 LEMD Fenix A320... 2024-04-17 17:27:50
FNX310 LEMD PMDG 737-8... 2024-04-13 16:34:32
FNX200 LEMD PMDG 737-8... 2024-04-13 18:00:49
FNXIE11 LEGE PMDG 737-8... 2024-04-03 12:21:55
FNXIE11 LEGE B738 2024-04-03 11:03:00
FNX201 LEBL Boeing 747... 2024-04-01 10:03:27
FNXPARTN17 GCLA PMDG 737-8... 2024-03-29 18:37:01
FNX211 LEXJ PMDG 737-8... 2024-03-26 13:44:31
FNXPARTN02 LEBB CRJ700 Fen... 2024-03-25 19:54:23
FNX205 GCLA PMDG 737-8... 2024-03-23 00:01:32
FNX218 LEMD Fenix A320... 2024-03-20 20:21:41
FNXPARTN05 LEBL PMDG 737-8... 2024-03-09 08:10:30
FNX216 LEMD Fenix A320... 2024-03-07 16:43:34
FNX407 LEPA PMDG 737-8... 2024-03-06 20:33:06
FNX1005 LEMD PMDG 737-8... 2024-02-29 18:48:38
FNX213 LEMD FenixA320... 2024-02-24 19:59:10
FNX403 GMMN PMDG 737-8... 2024-02-19 13:03:47
FNXPARTN02 LEBB PMDG 737-8... 2024-02-17 08:33:34
FNX1117 LEBL FenixA320... 2024-02-16 14:04:06
FNX102 LEVT PMDG 737-8... 2024-02-16 13:27:39
FNX1005 LEMD Airbus A32... 2024-02-16 11:48:11
FNX201 LGSK Cessna CJ4... 2024-02-14 16:56:16
FNXTM21 LEIB PMDG 737-8... 2024-02-09 11:25:30
FNXPARTN05 LEBL PMDG 737-8... 2024-02-09 20:13:32
FNX211 LEBL PMDG 737-8... 2024-02-09 20:11:56
FNX207 LEAL PMDG 737-8... 2024-02-08 09:30:57
FNX211 LPPR PMDG 737-8... 2024-02-07 21:18:29
FNX1117 LEBL PMDG 737-8... 2024-01-31 16:43:46
FNXPARTN02 LEBB PMDG 737-8... 2024-01-26 17:56:26
FNXPARTN17 GCLA PMDG 737-8... 2024-01-24 19:30:15
FNX207 LEIB PMDG 737-8... 2024-01-23 10:19:04
FNX400 GCLP FenixA320... 2024-01-20 21:04:34
FNXPARTN05 LEBL PMDG 737-8... 2024-01-18 15:49:52
FNXPARTN02 LEBB PMDG 737-8... 2024-01-17 18:39:39
FNXLGH02 KEWR B787-8 Fen... 2024-01-15 16:40:00
FNXLGH02 KEWR B787-10 Fe... 2024-01-15 14:35:00
FNX1117 LEBL FenixA320... 2024-01-14 15:13:30
FNX211 GCRR PMDG 737-8... 2024-01-13 09:15:29
FNX207 LECO PMDG 737-8... 2024-01-11 09:51:02
FNX302 LOWI PMDG 737-8... 2024-01-01 17:59:43
FNX1184 LEPA ToLissA320... 2024-01-01 17:27:01
FNX107 LFBZ PMDG 737-8... 2023-12-08 10:56:19
FNX102 LFBZ PMDG 737-8... 2023-12-08 12:17:38
FNX107 LEZG PMDG 737-8... 2023-12-06 10:23:13
FNX300 LESU DA62 Fenix... 2023-12-03 16:35:01
FNX207 LEAL PMDG 737-8... 2023-11-30 09:58:48
FNX107 LXGB Carenado M... 2023-10-12 12:18:51
FNX107 LEBB PMDG 737-8... 2023-10-08 10:56:30
FNX102 LEBB Fenix Airl... 2023-10-08 10:57:54
FNX107 LEMH PMDG 737-8... 2023-09-24 16:19:49
FNX102 LEMH B737-800X... 2023-09-24 16:25:12
FNXTM21 LEIB PMDG 737-8... 2023-08-26 07:42:56

Información de pista (Elevación del aeropuerto: 39ft)

Pista 12 Longitud 10,442ft Anchura 140ft Elevación 39ft Superficie Asphalt Rumbo 118
Pista 13 Longitud 10,511ft Anchura 158ft Elevación 39ft Superficie Asphalt Rumbo 132
Pista 30 Longitud 10,442ft Anchura 140ft Elevación 39ft Superficie Asphalt Rumbo 298
Pista 31 Longitud 10,511ft Anchura 158ft Elevación 39ft Superficie Asphalt Rumbo 312

Frecuencias del aeropuerto

Tipo APP/DEP Frecuencia 118.455 Mhz
Tipo APP/DEP Frecuencia 121.030 Mhz
Tipo APP/DEP Frecuencia 123.855 Mhz
Tipo APP/DEP Frecuencia 125.955 Mhz
Tipo ATIS Frecuencia 120.380 Mhz
Tipo ATIS Frecuencia 124.480 Mhz
Tipo Clearance Frecuencia 121.880 Mhz
Tipo D Frecuencia 118.455 Mhz
Tipo Ground Frecuencia 121.705 Mhz
Tipo Ground Frecuencia 121.955 Mhz
Tipo Tower Frecuencia 118.155 Mhz
Tipo Tower Frecuencia 118.780 Mhz
Tipo Tower Frecuencia 122.100 Mhz
Tipo Tower Frecuencia 124.780 Mhz
Tipo Ground Frecuencia 121.705 Mhz
Tipo Ground Frecuencia 121.955 Mhz
Tipo Tower Frecuencia 118.150 Mhz

Radioayudas del aeropuerto

Tipo VOR-DME Identif. MAR Frecuencia 112600 Khz
Tipo VOR-DME Identif. MGA Frecuencia 112000 Khz
Tipo VOR-DME Identif. MLG Frecuencia 113550 Khz
Tipo NDB Identif. RMA Frecuencia 330 Khz